When you browse on this site, cookies collect data to enhance your experience and personalize the content and advertising you see.
Visit our Privacy Policy to learn more. By continuing to use the site, you agree to this use of cookies and data.
  • In Österreich
  • Länderverzeichnis
  • Für 7 Tage
  • Wassertemperatur
  • Wetterkarte
  • News
  • Widgets
  • user-avatar
    Anmelden

    Stündliche Wetter Rocha

    Heute, 20 August, Dienstag

    Zeit Temperatur Niederschläge Wind Luftdruck Luftfeuchtigkeit
    00:00 +4°C° 0 mm 2 m/S 768 mmHg 79%
    01:00 +4°C° 0 mm 2 m/S 768 mmHg 79%
    02:00 +3°C° 0 mm 3 m/S 768 mmHg 83%
    03:00 +3°C° 0 mm 3 m/S 768 mmHg 82%
    04:00 +3°C° 0 mm 3 m/S 768 mmHg 81%
    05:00 +3°C° 0 mm 3 m/S 768 mmHg 81%
    06:00 +4°C° 0 mm 3 m/S 768 mmHg 77%
    07:00 +5°C° 0 mm 4 m/S 769 mmHg 74%
    08:00 +6°C° 0 mm 4 m/S 769 mmHg 71%
    09:00 +6°C° 0 mm 4 m/S 770 mmHg 70%
    10:00 +6°C° 0 mm 4 m/S 770 mmHg 69%
    11:00 +7°C° 0 mm 4 m/S 770 mmHg 69%
    12:00 +7°C° 0 mm 4 m/S 769 mmHg 68%
    13:00 +7°C° 0 mm 4 m/S 769 mmHg 68%
    14:00 +7°C° 0 mm 4 m/S 769 mmHg 68%
    15:00 +6°C° 0 mm 4 m/S 769 mmHg 70%
    16:00 +6°C° 0 mm 4 m/S 769 mmHg 71%
    17:00 +5°C° 0 mm 3 m/S 769 mmHg 72%
    18:00 +5°C° 0 mm 3 m/S 769 mmHg 73%
    19:00 +5°C° 0 mm 3 m/S 770 mmHg 73%
    20:00 +6°C° 0 mm 2 m/S 770 mmHg 74%
    21:00 +5°C° 0 mm 2 m/S 770 mmHg 75%
    22:00 +4°C° 0 mm 3 m/S 770 mmHg 76%
    23:00 +4°C° 0 mm 3 m/S 770 mmHg 77%

    Morgen, 21 August, Mittwoch

    Zeit Temperatur Niederschläge Wind Luftdruck Luftfeuchtigkeit
    00:00 +5°C° 0 mm 2 m/S 770 mmHg 78%
    01:00 +4°C° 0 mm 2 m/S 769 mmHg 79%
    02:00 +4°C° 0 mm 2 m/S 769 mmHg 80%
    03:00 +4°C° 0 mm 2 m/S 769 mmHg 81%
    04:00 +4°C° 0 mm 2 m/S 769 mmHg 83%
    05:00 +3°C° 0 mm 2 m/S 769 mmHg 85%
    06:00 +4°C° 0 mm 2 m/S 769 mmHg 81%
    07:00 +6°C° 0 mm 2 m/S 770 mmHg 77%
    08:00 +7°C° 0 mm 3 m/S 770 mmHg 73%
    09:00 +8°C° 0 mm 3 m/S 770 mmHg 70%
    10:00 +9°C° 0 mm 3 m/S 770 mmHg 67%
    11:00 +10°C° 0 mm 3 m/S 770 mmHg 65%
    12:00 +10°C° 0 mm 3 m/S 770 mmHg 65%
    13:00 +10°C° 0 mm 3 m/S 770 mmHg 66%
    14:00 +10°C° 0 mm 3 m/S 769 mmHg 66%
    15:00 +9°C° 0 mm 3 m/S 769 mmHg 71%
    16:00 +7°C° 0 mm 2 m/S 769 mmHg 77%
    17:00 +6°C° 0 mm 2 m/S 769 mmHg 82%
    18:00 +6°C° 0 mm 1 m/S 769 mmHg 84%
    19:00 +5°C° 0 mm 1 m/S 769 mmHg 86%
    20:00 +4°C° 0 mm 1 m/S 769 mmHg 88%
    21:00 +4°C° 0 mm 1 m/S 769 mmHg 89%
    22:00 +4°C° 0 mm 1 m/S 769 mmHg 89%
    23:00 +3°C° 0 mm 0 m/S 769 mmHg 90%

    übermorgen, 22 August, Donnerstag

    Zeit Temperatur Niederschläge Wind Luftdruck Luftfeuchtigkeit
    00:00 +4°C° 0 mm 0 m/S 769 mmHg 90%
    01:00 +5°C° 0 mm 1 m/S 769 mmHg 91%
    02:00 +5°C° 0 mm 1 m/S 769 mmHg 91%
    03:00 +5°C° 0 mm 1 m/S 769 mmHg 91%
    04:00 +5°C° 0 mm 1 m/S 769 mmHg 91%
    05:00 +4°C° 0 mm 0 m/S 769 mmHg 91%
    06:00 +7°C° 0 mm 1 m/S 769 mmHg 89%
    07:00 +8°C° 0 mm 1 m/S 770 mmHg 87%
    08:00 +9°C° 0 mm 1 m/S 770 mmHg 84%
    09:00 +11°C° 0 mm 1 m/S 770 mmHg 80%
    10:00 +12°C° 0 mm 2 m/S 770 mmHg 77%
    11:00 +14°C° 0 mm 2 m/S 770 mmHg 73%
    12:00 +14°C° 0 mm 2 m/S 770 mmHg 72%
    13:00 +14°C° 0 mm 2 m/S 769 mmHg 72%
    14:00 +14°C° 0 mm 1 m/S 769 mmHg 71%
    15:00 +13°C° 0 mm 1 m/S 769 mmHg 78%
    16:00 +12°C° 0 mm 1 m/S 768 mmHg 85%
    17:00 +10°C° 0 mm 1 m/S 768 mmHg 91%
    18:00 +10°C° 0 mm 1 m/S 768 mmHg 92%
    19:00 +9°C° 0 mm 1 m/S 769 mmHg 93%
    20:00 +7°C° 0 mm 0 m/S 769 mmHg 93%
    21:00 +6°C° 0 mm 0 m/S 769 mmHg 93%
    22:00 +6°C° 0 mm 0 m/S 769 mmHg 92%
    23:00 +6°C° 0 mm 0 m/S 769 mmHg 92%

    23 August, Freitag

    Zeit Temperatur Niederschläge Wind Luftdruck Luftfeuchtigkeit
    00:00 +6°C° 0 mm 0 m/S 769 mmHg 92%
    01:00 +6°C° 0 mm 0 m/S 768 mmHg 91%
    02:00 +6°C° 0 mm 0 m/S 768 mmHg 91%
    03:00 +5°C° 0 mm 0 m/S 768 mmHg 91%
    04:00 +5°C° 0 mm 0 m/S 768 mmHg 91%
    05:00 +5°C° 0 mm 0 m/S 768 mmHg 91%
    06:00 +7°C° 0 mm 0 m/S 768 mmHg 88%
    07:00 +8°C° 0 mm 0 m/S 768 mmHg 85%
    08:00 +10°C° 0 mm 0 m/S 768 mmHg 82%
    09:00 +12°C° 0 mm 1 m/S 768 mmHg 76%
    10:00 +14°C° 0 mm 1 m/S 768 mmHg 69%
    11:00 +16°C° 0 mm 1 m/S 768 mmHg 63%
    12:00 +16°C° 0 mm 2 m/S 768 mmHg 63%
    13:00 +16°C° 0 mm 2 m/S 767 mmHg 63%
    14:00 +16°C° 0 mm 2 m/S 767 mmHg 64%
    15:00 +13°C° 0 mm 3 m/S 767 mmHg 71%
    16:00 +12°C° 0 mm 3 m/S 767 mmHg 79%
    17:00 +10°C° 0 mm 3 m/S 766 mmHg 87%
    18:00 +9°C° 0 mm 3 m/S 766 mmHg 89%
    19:00 +8°C° 0 mm 2 m/S 766 mmHg 91%
    20:00 +7°C° 0 mm 2 m/S 766 mmHg 93%
    21:00 +7°C° 0 mm 2 m/S 766 mmHg 93%
    22:00 +7°C° 0 mm 2 m/S 766 mmHg 93%
    23:00 +7°C° 0 mm 2 m/S 766 mmHg 93%

    24 August, Samstag

    Zeit Temperatur Niederschläge Wind Luftdruck Luftfeuchtigkeit
    00:00 +7°C° 0 mm 2 m/S 766 mmHg 93%
    01:00 +7°C° 0 mm 2 m/S 766 mmHg 93%
    02:00 +7°C° 0 mm 2 m/S 765 mmHg 94%
    03:00 +7°C° 0 mm 2 m/S 765 mmHg 94%
    04:00 +7°C° 0 mm 2 m/S 765 mmHg 95%
    05:00 +7°C° 0 mm 2 m/S 765 mmHg 95%
    06:00 +9°C° 0 mm 3 m/S 766 mmHg 93%
    07:00 +10°C° 0 mm 4 m/S 766 mmHg 91%
    08:00 +12°C° 0 mm 4 m/S 766 mmHg 89%
    09:00 +14°C° 0 mm 5 m/S 766 mmHg 83%
    10:00 +15°C° 0 mm 5 m/S 765 mmHg 77%
    11:00 +17°C° 0 mm 6 m/S 765 mmHg 71%
    12:00 +17°C° 0 mm 5 m/S 765 mmHg 71%
    13:00 +17°C° 0 mm 5 m/S 764 mmHg 71%
    14:00 +19°C° 0 mm 5 m/S 764 mmHg 71%
    15:00 +17°C° 0 mm 5 m/S 763 mmHg 77%
    16:00 +15°C° 0 mm 4 m/S 763 mmHg 82%
    17:00 +14°C° 0 mm 4 m/S 763 mmHg 88%
    18:00 +14°C° 0 mm 4 m/S 763 mmHg 90%
    19:00 +13°C° 0 mm 4 m/S 763 mmHg 92%
    20:00 +12°C° 0 mm 5 m/S 763 mmHg 94%
    21:00 +12°C° 0 mm 5 m/S 763 mmHg 94%
    22:00 +12°C° 0 mm 5 m/S 763 mmHg 94%
    23:00 +12°C° 0 mm 5 m/S 763 mmHg 94%

    25 August, Sonntag

    Zeit Temperatur Niederschläge Wind Luftdruck Luftfeuchtigkeit
    00:00 +12°C° 0 mm 5 m/S 763 mmHg 94%
    01:00 +12°C° 0 mm 4 m/S 763 mmHg 95%
    02:00 +11°C° 0 mm 4 m/S 763 mmHg 95%
    03:00 +11°C° 0 mm 4 m/S 763 mmHg 95%
    04:00 +11°C° 0 mm 4 m/S 763 mmHg 96%
    05:00 +11°C° 0 mm 4 m/S 763 mmHg 96%
    06:00 +12°C° 0 mm 4 m/S 763 mmHg 94%
    07:00 +13°C° 0 mm 4 m/S 763 mmHg 92%
    08:00 +13°C° 0 mm 4 m/S 763 mmHg 90%
    09:00 +14°C° 0 mm 4 m/S 763 mmHg 88%
    10:00 +15°C° 0 mm 4 m/S 763 mmHg 86%
    11:00 +17°C° 0 mm 4 m/S 763 mmHg 84%
    12:00 +17°C° 0.1 mm 3 m/S 763 mmHg 85%
    13:00 +17°C° 0.1 mm 2 m/S 762 mmHg 86%
    14:00 +17°C° 0.1 mm 2 m/S 762 mmHg 86%
    15:00 +18°C° 0.2 mm 1 m/S 762 mmHg 89%
    16:00 +16°C° 0.2 mm 1 m/S 762 mmHg 91%
    17:00 +15°C° 0.2 mm 0 m/S 763 mmHg 94%
    18:00 +15°C° 0.1 mm 0 m/S 763 mmHg 94%
    19:00 +14°C° 0.1 mm 0 m/S 763 mmHg 94%
    20:00 +14°C° 0.1 mm 0 m/S 763 mmHg 95%
    21:00 +14°C° 0 mm 0 m/S 763 mmHg 95%
    22:00 +15°C° 0 mm 1 m/S 763 mmHg 95%
    23:00 +15°C° 0 mm 1 m/S 763 mmHg 95%
    Mehr zeigen